sat.trackr.live / text

‹ back to catalog

STARLINK-5035

NORAD 53897 · 2022-119M

PAYLOAD ACTIVE UNKNOWN

§ Identity

Operator
Country
US
Launch date
2022-09-24
Launch site
AFETR
Launch vehicle
Mass (kg)
RCS (m²)

Purposes: comms

External: N2YO · Heavens-Above · Gunter

§ Orbital elements

Epoch: 2026-09-20T22:00:03.000096Z

Period
93.23 min
Inclination
53.2159°
Eccentricity
0.0001238
Mean motion
15.44570354 rev/d
Perigee alt
431.8 km
Apogee alt
433.5 km
Semi-major
6,810.8 km
B*
1.9752e-3
RAAN
112.0878°
Arg perigee
76.9183°
Mean anomaly
157.8542°
Rev number
593

§ Raw data

STARLINK-50351 53897U 22119M   26263.91670139  .00093952  00000+0  19752-2 0  99952 53897  53.2159 112.0878 0001238  76.9183 157.8542 15.44570354  5931

JSON: /api/v1/satellites/53897 · /tle

For live sub-satellite position, see the globe view (requires WebGL).

§ Visibility from observer

Set your observer location to see the next 7 days of passes ≥ 10°. The values pass through the URL so the page stays shareable.

No JS? Fill the form by hand. The geolocation button needs JavaScript.